This demonstration page uses our WeatherBlox Daily Observations layout. Learn more.

Left ArrowRight Arrow

Hourly Observations for May 2, 2021

Temp ( °F °C ) Dew Point ( °F °C ) Humidity (%) Winds ( mph kmh ) Pressure ( in mb ) Visibility ( mi km ) Precip ( " mm )
12:15 am 00:15 Clear 64 17.8 47 8.5 55 55 SSW 15 24 29.84 1011 10 16 0.00 0.00
12:35 am 00:35 Clear 64 17.7 47 8.6 55 55 SW 14 22 29.84 1011 10 16 0.00 0.00
12:55 am 00:55 Clear 64 17.6 48 8.7 56 56 SSW 14 22 29.84 1011 10 16 0.00 0.00
1:15 am 01:15 Clear 64 17.5 48 8.8 57 57 SSW 13 20 29.84 1011 10 16 0.00 0.00
1:35 am 01:35 Clear 63 17.1 48 9.1 60 60 SW 14 22 29.85 1011 10 16 0.00 0.00
1:55 am 01:55 Clear 62 16.8 49 9.2 61 61 SW 12 19 29.85 1011 10 16 0.00 0.00
2:15 am 02:15 Clear 62 16.9 49 9.3 61 61 SW 10 17 29.84 1010 10 16 0.00 0.00
2:35 am 02:35 Clear 62 16.6 49 9.5 63 63 SW 12 19 29.84 1010 10 16 0.00 0.00
2:55 am 02:55 Clear 62 16.5 49 9.6 64 64 SW 13 20 29.83 1010 10 16 0.00 0.00
3:15 am 03:15 Clear 62 16.6 49 9.6 64 64 SW 13 20 29.83 1010 10 16 0.00 0.00
3:35 am 03:35 Clear 62 16.9 49 9.6 62 62 SW 13 20 29.82 1010 10 16 0.00 0.00
3:55 am 03:55 Clear 63 17.1 49 9.7 62 62 SW 12 19 29.82 1010 10 16 0.00 0.00
4:15 am 04:15 Clear 63 17 49 9.7 62 62 SW 12 19 29.82 1010 10 16 0.00 0.00
4:35 am 04:35 Clear 62 16.9 50 9.8 63 63 SW 13 20 29.82 1010 10 16 0.00 0.00
4:55 am 04:55 Clear 63 17 49 9.7 62 62 SSW 13 20 29.82 1010 10 16 0.00 0.00
5:15 am 05:15 Clear 62 16.5 50 9.8 65 65 SSW 10 17 29.82 1010 10 16 0.00 0.00
5:35 am 05:35 Clear 61 15.9 50 9.8 67 67 SSW 8 13 29.82 1010 10 16 0.00 0.00
5:55 am 05:55 Clear 60 15.5 50 10 70 70 SSW 9 15 29.82 1010 10 16 0.00 0.00
6:15 am 06:15 Clear 60 15.4 50 10 70 70 SSW 8 13 29.83 1010 10 16 0.00 0.00
6:35 am 06:35 Clear 59 14.9 50 9.9 72 72 SSW 9 15 29.83 1010 10 16 0.00 0.00
6:55 am 06:55 Sunny 59 15 50 9.9 72 72 SSW 9 15 29.83 1010 10 16 0.00 0.00
7:15 am 07:15 Sunny 60 15.3 50 10 71 71 SSW 9 15 29.83 1010 10 16 0.00 0.00
7:35 am 07:35 Sunny 61 15.9 50 10.1 69 69 SSW 9 15 29.84 1011 10 16 0.00 0.00
7:55 am 07:55 Sunny 62 16.5 51 10.3 67 67 SSW 9 15 29.84 1010 10 16 0.00 0.00
8:15 am 08:15 Sunny 62 16.9 51 10.3 65 65 SSW 9 15 29.84 1010 10 16 0.00 0.00
8:35 am 08:35 Sunny 64 17.5 50 10.2 62 62 SSW 10 17 29.82 1010 10 16 0.00 0.00
8:55 am 08:55 Sunny 64 18 51 10.3 61 61 SSW 9 15 29.82 1010 10 16 0.00 0.00
9:15 am 09:15 Sunny 65 18.5 51 10.3 59 59 SSW 12 19 29.82 1010 10 16 0.00 0.00
9:35 am 09:35 Sunny 67 19.3 51 10.6 57 57 SSW 13 20 29.82 1010 10 16 0.00 0.00
9:55 am 09:55 Sunny 68 20.1 51 10.3 53 53 SSW 17 28 29.81 1009 10 16 0.00 0.00
10:15 am 10:15 Sunny 70 21 51 10.5 51 51 SW 14 22 29.80 1009 10 16 0.00 0.00
10:35 am 10:35 Sunny 71 21.9 52 10.9 50 50 SW 14 22 29.79 1009 10 16 0.00 0.00
10:55 am 10:55 Sunny 71 21.4 51 10.4 50 50 SW 17 28 29.79 1009 10 16 0.00 0.00
11:15 am 11:15 Sunny 72 22.1 51 10.6 48 48 SW 14 22 29.78 1008 10 16 0.00 0.00
11:35 am 11:35 Sunny 73 23 51 10.6 46 46 SSW 15 24 29.79 1009 10 16 0.00 0.00
11:55 am 11:55 Sunny 74 23.3 51 10.5 44 44 SSW 21 33 29.78 1008 10 16 0.00 0.00
12:15 pm 12:15 Sunny 75 23.8 50 10.1 42 42 WSW 20 31 29.77 1008 10 16 0.00 0.00
12:35 pm 12:35 Sunny 75 23.9 51 10.4 43 43 SW 17 28 29.77 1008 10 16 0.00 0.00
12:55 pm 12:55 Sunny 76 24.2 51 10.3 42 42 SW 20 31 29.77 1008 10 16 0.00 0.00
1:15 pm 13:15 Sunny 75 23.8 50 10.1 42 42 SW 20 31 29.76 1008 10 16 0.00 0.00
1:35 pm 13:35 Sunny 75 24.1 50 10 41 41 SSW 20 31 29.75 1008 10 16 0.00 0.00
1:55 pm 13:55 Sunny 75 24 48 8.8 38 38 SW 25 41 29.75 1008 10 16 0.00 0.00
2:15 pm 14:15 Sunny 75 24.1 49 9.2 39 39 SSW 24 39 29.74 1007 10 16 0.00 0.00
2:35 pm 14:35 Sunny 75 24 49 9.6 40 40 SSW 17 28 29.74 1007 10 16 0.00 0.00
2:55 pm 14:55 Sunny 74 23.6 50 10 42 42 SW 17 28 29.74 1007 10 16 0.00 0.00
3:15 pm 15:15 Sunny 74 23.4 51 10.3 44 44 SW 17 28 29.75 1007 10 16 0.00 0.00
3:35 pm 15:35 Sunny 74 23.5 51 10.7 45 45 SW 17 28 29.74 1007 10 16 0.00 0.00
3:55 pm 15:55 Sunny 74 23.5 51 10.7 45 45 SSW 20 31 29.74 1007 10 16 0.00 0.00
4:15 pm 16:15 Sunny 74 23.3 51 10.5 44 44 SSW 22 35 29.74 1007 10 16 0.00 0.00
4:35 pm 16:35 Sunny 73 23 52 11.3 48 48 WSW 20 31 29.73 1007 10 16 0.00 0.00
4:55 pm 16:55 Partly Cloudy 73 22.5 52 11 48 48 SW 17 28 29.73 1007 10 16 0.00 0.00
5:15 pm 17:15 Mostly Cloudy 72 22.1 52 11 49 49 SW 18 30 29.73 1007 10 16 0.00 0.00
5:35 pm 17:35 Cloudy 71 21.4 52 11 52 52 SSW 17 28 29.74 1007 10 16 0.00 0.00
5:55 pm 17:55 Mostly Cloudy 70 21 52 10.9 53 53 SSW 21 33 29.74 1007 10 16 0.00 0.00
6:15 pm 18:15 Mostly Cloudy 68 20.2 51 10.5 54 54 SSW 21 33 29.76 1008 10 16 0.00 0.00
6:35 pm 18:35 Cloudy 67 19.7 51 10.6 56 56 SSW 15 24 29.76 1008 10 16 0.00 0.00
6:55 pm 18:55 Cloudy 67 19.2 51 10.5 57 57 SSW 13 20 29.76 1008 10 16 0.00 0.00
7:15 pm 19:15 Cloudy 66 18.8 51 10.6 59 59 SSW 10 17 29.76 1008 10 16 0.00 0.00
7:35 pm 19:35 Cloudy 65 18.4 51 10.7 61 61 S 9 15 29.76 1008 10 16 0.00 0.00
7:55 pm 19:55 Cloudy with Drizzle 62 16.9 54 12.1 74 74 S 7 11 29.77 1008 10 16 0.00 0.00
8:15 pm 20:15 Cloudy with Drizzle 61 16.2 55 12.5 79 79 S 7 11 29.77 1008 10 16 0.00 0.00
8:35 pm 20:35 Cloudy with Drizzle 60 15.6 55 13 85 85 SSE 5 7 29.76 1008 10 16 0.00 0.00
8:55 pm 20:55 Cloudy with Drizzle 60 15.5 56 13.2 86 86 SSE 5 7 29.75 1008 10 16 0.00 0.00
9:15 pm 21:15 Cloudy with Drizzle 60 15.3 56 13.2 87 87 S 5 7 29.76 1008 10 16 0.00 0.00
9:55 pm 21:55 Cloudy with Rain 59 15.1 56 13.2 89 89 SE 6 9 29.75 1008 10 16 0.01 0.25
10:15 pm 22:15 Cloudy with Drizzle 59 15.1 56 13.2 89 89 SSE 7 11 29.76 1008 10 16 0.00 0.00
10:35 pm 22:35 Cloudy with Drizzle 59 15.1 56 13.2 89 89 SSE 8 13 29.76 1008 10 16 0.00 0.00
10:55 pm 22:55 Cloudy with Drizzle 59 15.1 56 13.1 88 88 SE 10 17 29.75 1008 10 16 0.00 0.00
11:15 pm 23:15 Cloudy with Drizzle 59 15.2 55 12.8 86 86 SSE 12 19 29.75 1008 10 16 0.00 0.00
11:35 pm 23:35 Cloudy with Drizzle 60 15.5 54 12 80 80 S 12 19 29.74 1007 10 16 0.00 0.00
11:55 pm 23:55 Cloudy with Rain 59 14.9 54 12 83 83 S 12 19 29.74 1007 10 16 0.00 0.00

Powered by AerisWeather